Location: ??
(35.5052°N, 139.7262°E)
Time: 18:18:35
(UTC+00:00)

X-37B - Pass Details

Date: 20 June 2021
Orbit: 383 x 392 km, 45.0° (Epoch: 01 July)

Event Time Altitude Azimuth Distance (km) Brightness Sun altitude
Exits shadow 15:51:38 14° 12° (NNE) 1,188 3.9 -28.8°
Drops below altitude 10° 15:53:00 10° 37° (NE) 1,405 4.2 -28.8°
Sets 15:55:46 0° 64° (ENE) 2,260 5.1 -28.6°
